Regional Weather Roundup
Issued by NWS

Home | Current Version | Previous Version | Graphics & Text | Print | Product List | Glossary Off
Versions: 1 2 3 4 5 6 7 8 9 10 11 12 13 14 15 16 17 18 19 20 21 22 23 24 25 26 27 28 29 30 31 32 33 34 35 36 37 38 39 40 41 42 43 44 45 46 47 48 49 50

000
ASUS43 KDMX 031407
RWRIA

WEATHER ROUNDUP FOR IOWA
NATIONAL WEATHER SERVICE DES MOINES IA
900 AM CDT SUN MAY 03 2015

NOTE: "FAIR" INDICATES FEW OR NO CLOUDS BELOW 12,000 FEET WITH NO
SIGNIFICANT WEATHER AND/OR OBSTRUCTIONS TO VISIBILITY.

* - THESE STATIONS ARE NOT NWS STATIONS...THUS NOT UNDER NWS
QUALITY CONTROL.  THEY ALSO DO NOT REPORT WEATHER SUCH
AS PRECIPITATION OR FOG.

IAZ001>003-012>014-020>022-031>034-043>046-031500-
   NORTHWEST IOWA

CITY           SKY/WX    TMP DP  RH WIND       PRES   REMARKS
CARROLL *      SUNNY     70  57  64 SW17G23   29.77S
CHEROKEE *     PTSUNNY   64  55  72 S5        29.77S
DENISON *      SUNNY     70  59  68 S21       29.75S
LE MARS *      SUNNY     66  55  68 S9        29.77R
ORANGE CITY *  SUNNY     64  54  68 S7        29.76R
SHELDON *      SUNNY     64  55  72 S7        29.76R
SIOUX CITY     MOSUNNY   67  54  63 SE6       29.75R
SPENCER        MOSUNNY   65  54  67 SE7       29.78R
STORM LAKE *   SUNNY     66  54  63 S14       29.78S
$$

IAZ055>058-069>071-079>083-090>094-031500-
   SOUTHWEST IOWA

CITY           SKY/WX    TMP DP  RH WIND       PRES   REMARKS
ATLANTIC *     SUNNY     66  59  77 S15       29.78S
AUDUBON *      SUNNY     66  59  77 S13       29.79S
CLARINDA *     SUNNY     66  57  72 S10G17    29.82S
COUNCIL BLFS * SUNNY     68  61  77 S18G25    29.76F
CRESTON *      SUNNY     64  59  82 S16       29.82S
HARLAN  *      SUNNY     66  63  88 S18       29.80S
LAMONI         MOSUNNY   64  55  72 S13       29.85R
RED OAK *      SUNNY     68  59  73 S16G24    29.78F
SHENANDOAH *   SUNNY     68  59  73 S22G29    29.78F
$$

IAZ047>049-059>061-072>074-084-031500-
   CENTRAL IOWA

CITY           SKY/WX    TMP DP  RH WIND       PRES   REMARKS
AMES           PTSUNNY   63  58  83 SE6       29.81R
ANKENY *       SUNNY     66  57  72 S9G17     29.81S
CHARITON *     SUNNY     63  55  77 S16       29.83S
DES MOINES     PTSUNNY   67  56  67 S12       29.80S
GRINNELL*      CLOUDY    57  54  88 CALM      29.85S
KNOXVILLE *    SUNNY     64  55  72 SW14      29.82R
MARSHALLTOWN   CLOUDY    58  54  86 S10       29.82R
PELLA *        CLOUDY    64  59  82 SW13      29.84S
PERRY *          N/A     66  57  72 S9        29.80R
$$

IAZ004>006-015-016-023>025-035-036-031500-
   NORTH CENTRAL IOWA

CITY           SKY/WX    TMP DP  RH WIND       PRES   REMARKS
ALGONA *       SUNNY     64  55  72 S13       29.80R
CLARION *      SUNNY     64  55  72 S13       29.80S
ESTHERVILLE    SUNNY     62  54  74 S12       29.77S
FORT DODGE *   SUNNY     64  55  72 S5        29.81R
MASON CITY     PTSUNNY   63  54  72 S13       29.82R
FOREST CITY *  SUNNY     63  52  67 S13       29.81R
IOWA FALLS *     N/A     61  54  77 SE10      29.82S
$$

IAZ007>011-017>019-026>030-037>042-050>054-066-031500-
   NORTHEAST IOWA

CITY           SKY/WX    TMP DP  RH WIND       PRES   REMARKS
CEDAR RAPIDS   CLOUDY    59  54  83 S16       29.85S
CHARLES CITY * SUNNY     61  57  88 S15       29.82S
CLINTON *        N/A     57  52  82 S10       29.96S
DECORAH *      SUNNY     63  50  63 S13       29.83R
DUBUQUE        CLOUDY    59  53  80 S14       29.87S
MONTICELLO *   CLOUDY    63  54  72 S10G16    29.87R
OELWEIN *      MOSUNNY   63  52  67 S18       29.85R
WATERLOO       CLOUDY    60  52  74 S14       29.83R
$$

IAZ064-065-067-068-078-031500-
   EAST CENTRAL IOWA

CITY           SKY/WX    TMP DP  RH WIND       PRES   REMARKS
DAVENPORT      LGT RAIN  59  50  72 S12       29.93S
IOWA CITY      LGT RAIN  59  53  80 SE14      29.87F
MT. PLEASANT * CLOUDY    63  52  67 SW12      29.93R
MUSCATINE *    PTSUNNY   61  54  77 SE7       29.91F
QUAD CITIES    LGT RAIN  61  51  70 S6        29.92F
$$

IAZ062-063-075>077-085>089-095>099-031500-
   SOUTHEAST IOWA

CITY           SKY/WX    TMP DP  RH WIND       PRES   REMARKS
BURLINGTON     PTSUNNY   67  51  56 S13       29.93R
FAIRFIELD *    CLOUDY    59  54  82 S15G22    29.86F
FORT MADISON * MOSUNNY   66  52  59 S13G18    29.94R
KEOKUK *       MOSUNNY   64  52  63 S13G20    29.93S
OSKALOOSA *      N/A     63  55  77 S21       29.84R
CENTERVILLE *  LGT RAIN  59  55  88 SE13      29.87F
OTTUMWA        CLOUDY    61  55  81 S16       29.85R
WASHINGTON *   PTSUNNY   61  59  94 S18G25    29.84F
$$

ABBREVIATIONS USED IN REMARKS
   TC - TEMPERATURES IN CELSIUS
  WCI - WIND CHILL INDEX
   HX - HEAT INDEX
  VSB - VISIBILITY
$$




USA.gov is the U.S. government's official web portal to all federal, state and local government web resources and services.